This demonstration page uses our WeatherBlox Daily Observations layout. Learn more.

Left ArrowRight Arrow

38.20091, -84.87328

Hourly Observations for September 3, 2022

Temp ( °F °C ) Dew Point ( °F °C ) Humidity (%) Winds ( mph kmh ) Pressure ( in mb ) Visibility ( mi km ) Precip ( " mm )
12:53 am 00:53 Clear 71 21.7 67 19.4 87 87 Calm 30.09 1019 10 16 0.00 0.00
1:53 am 01:53 Clear 71 21.7 67 19.4 87 87 Calm 30.09 1019 10 16 0.00 0.00
2:53 am 02:53 Clear 71 21.7 67 19.4 87 87 Calm 30.09 1019 10 16 0.00 0.00
3:53 am 03:53 Partly Cloudy 72 22.2 68 20 87 87 Calm 30.08 1019 10 16 0.00 0.00
4:53 am 04:53 Mostly Cloudy 71 21.7 68 20 90 90 Calm 30.09 1019 10 16 0.00 0.00
5:53 am 05:53 Mostly Clear 71 21.7 68 20 90 90 ESE 6 9 30.09 1019 10 16 0.00 0.00
6:53 am 06:53 Clear 71 21.7 68 20 90 90 Calm 30.09 1019 10 16 0.00 0.00
7:53 am 07:53 Cloudy 73 22.8 70 21.1 90 90 SSW 5 7 30.12 1020 10 16 0.00 0.00
8:53 am 08:53 Sunny 75 23.9 70 21.1 84 84 SE 6 9 30.13 1020 10 16 0.00 0.00
9:53 am 09:53 Mostly Cloudy 77 25 71 21.7 82 82 S 7 11 30.14 1021 10 16 0.00 0.00
10:53 am 10:53 Cloudy with Light Rain 76 24.4 71 21.7 85 85 S 7 11 30.14 1021 10 16 0.01 0.13
11:53 am 11:53 Cloudy 78 25.6 71 21.7 79 79 SE 6 9 30.14 1021 10 16 0.01 0.13
12:53 pm 12:53 Partly Cloudy 82 27.8 72 22.2 72 72 SE 8 13 30.13 1020 10 16 0.00 0.00
1:53 pm 13:53 Sunny 85 29.4 71 21.7 63 63 ESE 12 19 30.11 1020 10 16 0.00 0.00
2:53 pm 14:53 Mostly Sunny 83 28.3 70 21.1 65 65 VRB 6 9 30.09 1019 10 16 0.00 0.00
3:53 pm 15:53 Cloudy 81 27.2 70 21.1 69 69 E 13 20 30.06 1018 10 16 0.00 0.00
4:53 pm 16:53 Partly Cloudy 82 27.8 71 21.7 69 69 E 9 15 30.04 1017 10 16 0.00 0.00
5:36 pm 17:36 Mostly Cloudy 81 27.2 71 21.7 72 72 E 12 19 30.03 1017 10 16 0.00 0.00
5:49 pm 17:49 Cloudy 81 27 70 21 70 70 E 9 15 30.03 1017 10 16 0.00 0.00
5:53 pm 17:53 Cloudy 81 27.2 71 21.7 72 72 ESE 8 13 30.05 1018 10 16 0.00 0.00
6:53 pm 18:53 Cloudy with Light Rain 78 25.6 71 21.7 79 79 ESE 10 17 30.05 1018 4 6 0.02 0.51
6:59 pm 18:59 Cloudy with Nearby Thunderstorms 76 24.4 71 21.7 85 85 E 9 15 30.04 1017 2 3 0.05 1.27
7:05 pm 19:05 Cloudy with Nearby Thunderstorms 76 24.4 72 22.2 88 88 ENE 8 13 30.04 1017 3 5 0.06 1.52
7:53 pm 19:53 Cloudy with Nearby Thunderstorms 75 23.9 71 21.7 88 88 NE 8 13 30.05 1018 10 16 0.06 1.52
8:16 pm 20:16 Cloudy with Thunderstorms 74 23.3 71 21.7 91 91 N 10 17 30.05 1018 10 16 0.00 0.00
8:25 pm 20:25 Cloudy with Thunderstorms 73 22.8 70 21.1 90 90 NNW 8 13 30.06 1018 10 16 0.00 0.00
8:53 pm 20:53 Cloudy with Thunderstorms 71 21.7 68 20 90 90 VRB 5 7 30.08 1019 9 14 0.02 0.51
9:08 pm 21:08 Cloudy with Nearby Thunderstorms 72 22.2 69 20.6 91 91 WNW 6 9 30.08 1018 6 10 0.04 1.02
9:44 pm 21:44 Cloudy with Nearby Thunderstorms 71 21.7 68 20 90 90 undefined N/A 30.09 1019 2 3 0.27 6.86
9:53 pm 21:53 Cloudy with Nearby Thunderstorms 71 21.7 68 20 90 90 NNW 7 11 30.09 1019 5 8 0.30 7.62
10:05 pm 22:05 Cloudy with Nearby Thunderstorms 70 21.1 69 20.6 97 97 VRB 3 6 30.10 1019 2 3 0.08 2.03
10:23 pm 22:23 Cloudy with Strong Thunderstorms 70 21.1 69 20.6 97 97 S 8 13 30.10 1019 2 3 0.35 8.89
10:31 pm 22:31 Cloudy with Strong Thunderstorms 71 21.7 69 20.6 93 93 S 12 19 30.11 1020 2 2 0.49 12.45
10:45 pm 22:45 Cloudy with Strong Thunderstorms 69 20.6 68 20 96 96 ESE 3 6 30.11 1020 3 5 0.59 14.99
10:53 pm 22:53 Cloudy with Nearby Thunderstorms 69 20.6 68 20 96 96 ENE 5 7 30.11 1020 3 5 0.62 15.75
11:04 pm 23:04 Cloudy with Nearby Thunderstorms 69 20.6 68 20 96 96 E 6 9 30.10 1019 4 6 0.04 1.02
11:20 pm 23:20 Cloudy with Rain 69 20.6 68 20 96 96 E 6 9 30.09 1019 6 10 0.07 1.78
11:36 pm 23:36 Cloudy with Nearby Thunderstorms 69 20.6 67 19.4 93 93 E 7 11 30.08 1019 7 11 0.10 2.54
11:51 pm 23:51 Mostly Cloudy with Rain 70 21 68 20 94 94 E 6 9 30.06 1018 6 10 0.15 3.81
11:53 pm 23:53 Mostly Cloudy with Rain 69 20.6 68 20 96 96 E 6 9 30.06 1018 7 11 0.15 3.81

Powered by AerisWeather